X  Close Möjligtvis lätta regnskurar på morgonen och under eftermiddagen.
Conditions Temperature Feels Precipitation Wind Wind Direction UV index Pressure
00:00 cloudy Mulet 9° 0.06 mm 14% 4-7 m/s South South - 1003,2
01:00 cloudy Mulet 9° 0.02 mm 8% 5-8 m/s SSE SSE - 1002,6
02:00 cloudy Mulet 9° - 6-10 m/s SE SE - 1002,1
03:00 cloudy Mulet 10° - 6-10 m/s SSE SSE - 1001,4
04:00 cloudy Mulet 10° 0.02 mm 9% 7-10 m/s SSE SSE - 1000,6
05:00 cloudy Mulet 11° 0.04 mm 14% 7-10 m/s SSE SSE - 1000,0
06:00 cloudy Mulet 11° 0.03 mm 8% 7-10 m/s South South - 999,4
07:00 partly-cloudy-day Molnigt 11° - 7-10 m/s South South - 999,2
08:00 partly-cloudy-day Molnigt 11° - 7-10 m/s SSW SSW - 998,0
09:00 partly-cloudy-day Molnigt 11° - 7-10 m/s SSW SSW uv-1 997,7
10:00 cloudy Mulet 12° - 8-11 m/s SSW SSW uv-1 997,5
11:00 cloudy Mulet 12° - 8-12 m/s SSW SSW uv-1 997,3
12:00 cloudy Mulet 12° - 8-13 m/s SSW SSW uv-1 997,4
13:00 cloudy Mulet 12° 0.01 mm 3% 8-14 m/s SSW SSW uv-1 997,9
14:00 cloudy Mulet 13° 0.01 mm 3% 8-14 m/s SSW SSW uv-1 997,8
15:00 cloudy Mulet 13° 0.01 mm 3% 8-14 m/s SSW SSW uv-1 997,6
16:00 cloudy Mulet 13° - 8-13 m/s SSW SSW - 996,8
17:00 cloudy Mulet 13° - 8-12 m/s SSW SSW - 996,6
18:00 partly-cloudy-day Molnigt 13° - 7-12 m/s SSW SSW - 996,8
19:00 partly-cloudy-night Molnigt 13° - 7-11 m/s SSW SSW - 997,0
20:00 partly-cloudy-night Molnigt 13° - 6-10 m/s SSW SSW - 997,1
21:00 partly-cloudy-night Molnigt 13° - 6-11 m/s SSW SSW - 997,6
22:00 partly-cloudy-night Molnigt 13° - 6-12 m/s SW SW - 998,1
23:00 cloudy Mulet 12° 0.01 mm 6% 6-12 m/s SSW SSW - 998,4
00:00 cloudy Mulet 12° 0.01 mm 9% 5-11 m/s South South - 998,6
01:00 cloudy Mulet 12° 0.02 mm 10% 5-9 m/s South South - 998,9
02:00 cloudy Mulet 12° 0.03 mm 9% 4-8 m/s West West - 999,4
03:00 cloudy Mulet 11° 0.02 mm 6% 4-8 m/s East Easterly - 999,9
04:00 cloudy Mulet 11° 0.02 mm 5% 4-8 m/s NNE NNE - 1000,5
05:00 cloudy Mulet 10° 0.04 mm 8% 5-9 m/s North North - 1000,9
06:00 cloudy Mulet 10° 0.09 mm 11% 5-9 m/s North North - 1001,4
07:00 cloudy Mulet 10° 0.3 mm 22% 5-9 m/s NNE NNE - 1001,7
08:00 rain Möjligtvis lätta regnskurar 10° 0.54 mm 35% 6-9 m/s NE NE - 1001,9
09:00 rain Möjligtvis lätta regnskurar 10° 0.63 mm 37% 6-9 m/s NE NE - 1002,2
10:00 rain Möjligtvis lätta regnskurar 10° 0.62 mm 37% 6-8 m/s ENE ENE uv-1 1002,5
11:00 rain Möjligtvis lätta regnskurar 10° 0.51 mm 34% 6-8 m/s ENE ENE uv-1 1002,7
12:00 cloudy Mulet 11° 0.3 mm 24% 6-7 m/s ENE ENE uv-1 1002,9
13:00 cloudy Mulet 11° 0.11 mm 14% 5-6 m/s East Easterly uv-1 1003,0
14:00 cloudy Mulet 12° 0.04 mm 9% 5-6 m/s East Easterly uv-1 1002,9
15:00 cloudy Mulet 12° 0.03 mm 8% 4-6 m/s ESE ESE uv-1 1002,6
16:00 cloudy Mulet 12° 0.02 mm 7% 4-6 m/s ESE ESE - 1002,2
17:00 cloudy Mulet 12° 0.03 mm 8% 4-7 m/s ESE ESE - 1001,8
18:00 cloudy Mulet 13° 0.07 mm 13% 4-9 m/s ESE ESE - 1001,2
19:00 partly-cloudy-night Molnigt 13° 0.17 mm 20% 5-11 m/s ESE ESE - 1000,6
20:00 partly-cloudy-night Molnigt 13° 0.23 mm 24% 5-13 m/s SE SE - 1000,1
21:00 cloudy Mulet 13° 0.13 mm 21% 6-14 m/s SE SE - 999,7
22:00 cloudy Mulet 13° 0.03 mm 15% 7-15 m/s SSE SSE - 999,4
23:00 cloudy Mulet 13° - 8-16 m/s South South - 999,4
00:00 cloudy Mulet 12° 0.01 mm 7% 8-15 m/s South South - 999,4